Location: Recife
(8.0585°S, 34.8848°W)
Time: 22:36:08
(UTC-03:00)

A-11 Canister half - Pass Details

Date: 16 April 2026
Orbit: 1523 x 1684 km, 47.3° (Epoch: 19 May)

Event Time Altitude Azimuth Distance (km) Brightness Sun altitude
Rises 18:38:13 0° 202° (SSW) 4,711 11.7 -20.7°
Reaches altitude 10° 18:42:01 10° 189° (S) 3,746 11.0 -21.7°
Enters shadow 18:49:24 26° 137° (SE) 2,749 9.9 -23.5°
